Voltar ao catálogo

STARLINK-6231

AtivoComunicaçõesVLEO
NORAD 56779·PAYLOAD·🇺🇸 United States

Lançado May 31, 2023 de Vandenberg Space Force Base

Loading…

Próximas Passagens (próximas 24 horas)

TLE

AtualizadoSource: CelesTrak SupGP

Época: Sep 14, 2026, 22:28 UTC

1 56779C 23078N   26257.93659722 -.00032779  00000+0 -27464-2 0  2570
2 56779  70.0021 207.2981 0003507 266.2416 349.8776 14.98355419    11

Acompanhe STARLINK-6231 em tempo real com AllMySat

Download on the App Store